Location: Anumalkud?ru
(16.4847°N, 80.6636°E)
Time: 15:01:33
(UTC+00:00)

Cosmos 1980 Rocket - Pass Details

Date: 11 April 2026
Orbit: 826 x 850 km, 71.0° (Epoch: 11 May)

Event Time Altitude Azimuth Distance (km) Brightness Sun altitude
Rises 22:01:17 0° 347° (NNW) 3,407 5.5 -33.9°
Reaches altitude 10° 22:03:45 10° 349° (N) 2,471 4.7 -33.3°
Enters shadow 22:04:27 14° 350° (N) 2,208 4.5 -33.2°
Exits shadow 22:15:14 - 157° (SSE) 2,537 4.7 -30.8°
Sets 22:17:29 0° 159° (SSE) 3,392 5.4 -30.3°
